Location: Leipzig
(51.3397°N, 12.3731°E)
Time: 19:55:52
(UTC+01:00)

ISS - Pass Details

Date: 26 October 2025
Orbit: 414 x 421 km, 51.6° (Epoch: 07 November)

Event Time Altitude Azimuth Distance (km) Brightness Sun altitude
Exits shadow 04:38:21 66° 75° (ENE) 462 -3.5 -21.6°
Drops below altitude 10° 04:41:20 10° 84° (E) 1,505 0.2 -21.1°
Sets 04:43:26 0° 85° (E) 2,372 1.7 -20.8°
